GFSFLT1_850_thetae_159.txt.gz
Theta_e
338 339 340 338 334 334 335 335 335 336 331 330 329 330 333 336 337 337 337 337 336 338 339 337 331 334 336 336 337 338 337 336 337
340 339 338 335 333 332 333 332 334 333 331 331 329 328 329 335 335 336 337 336 336 337 337 336 336 331 333 335 337 336 337 336 338
338 338 337 334 331 331 332 333 334 331 329 329 327 327 327 331 333 335 336 336 332 334 335 335 333 332 332 334 335 335 335 335 336
336 336 335 332 331 332 333 334 332 332 328 328 326 324 324 328 332 333 335 334 329 329 333 333 333 333 334 332 333 333 333 334 334
333 335 333 332 332 333 333 334 332 330 330 327 324 321 320 326 331 331 333 332 329 330 331 330 330 332 332 333 333 334 332 331 331
332 333 332 332 333 333 333 334 332 331 330 326 322 320 319 323 328 331 331 329 328 329 329 329 330 330 330 331 331 330 330 331 331
332 332 331 331 332 333 333 334 333 332 328 325 321 319 321 324 327 328 328 328 328 327 327 328 327 329 328 328 326 324 320 320 321
331 331 330 333 333 333 333 334 333 330 328 324 321 319 320 325 327 326 326 327 325 324 324 325 323 324 326 325 324 321 315 311 311
328 329 331 331 332 333 334 334 334 329 327 323 320 321 324 325 325 326 324 325 325 325 326 326 326 325 327 326 320 317 313 311 311
335 332 331 331 332 333 332 334 331 328 326 323 321 322 324 325 324 324 325 325 325 325 325 325 325 326 326 322 317 314 311 310 310
335 334 332 331 331 331 332 333 330 327 325 324 322 320 323 324 324 324 324 325 324 324 324 324 324 324 323 320 317 315 313 312 311
333 333 332 331 330 329 331 332 330 327 325 323 322 321 323 324 323 323 323 324 324 323 323 323 324 324 323 320 316 315 315 315 314
333 332 332 331 329 329 329 331 330 327 325 324 322 320 323 323 322 323 323 323 323 323 323 322 324 323 322 320 317 316 315 313 313
331 333 331 328 328 328 327 329 331 327 324 322 321 319 322 322 322 322 322 322 322 322 322 321 322 322 322 320 318 314 313 313 313
329 329 329 326 326 325 325 326 329 326 324 322 321 320 321 321 321 321 322 322 320 321 320 321 320 321 321 321 318 315 313 312 312
325 327 328 327 326 327 327 329 327 324 323 322 321 321 321 320 320 321 320 320 320 319 318 319 319 319 317 319 319 317 313 312 312
323 325 328 327 326 325 324 326 327 325 324 321 320 320 320 320 319 320 321 319 317 314 314 315 313 315 315 316 310 311 312 311 311
323 323 321 324 322 325 326 326 327 326 323 322 320 320 319 319 321 321 319 317 313 312 312 312 311 310 311 310 310 310 310 311 311
323 321 322 322 320 325 324 326 326 327 324 321 320 320 318 319 318 319 318 316 312 314 313 313 313 311 312 311 311 311 311 310 311
323 321 322 322 321 323 323 325 325 324 324 321 321 318 320 317 315 317 316 315 313 315 315 314 314 313 312 312 312 312 311 311 311

GFSFLT1_850_thetae_162.txt.gz
Theta_e
336 338 339 339 337 335 335 334 333 332 329 329 332 334 337 341 342 339 338 338 338 338 335 330 334 336 337 338 338 338 338 336 315
337 338 339 337 334 335 334 332 332 332 330 329 329 331 336 343 342 339 338 338 338 336 336 334 330 334 336 337 337 337 337 337 336
340 339 339 336 334 334 333 332 333 330 329 328 326 327 333 340 341 338 336 337 338 336 334 334 332 332 333 335 336 336 336 336 336
336 337 338 335 332 333 333 334 332 331 328 328 326 324 328 336 338 336 337 337 335 335 333 332 334 334 332 331 332 333 334 334 333
335 336 336 333 332 332 334 334 333 330 330 327 324 321 325 334 336 336 334 333 331 333 333 333 334 334 334 334 333 332 331 330 331
337 336 335 333 332 333 334 334 333 330 329 325 322 324 331 331 334 334 332 330 330 329 328 327 329 329 330 330 330 330 331 330 331
340 338 332 332 332 333 333 334 333 332 331 326 323 328 329 330 332 332 330 328 328 328 328 327 328 329 328 326 325 322 321 319 317
337 339 335 331 332 333 333 334 334 335 332 329 328 328 328 328 329 329 327 327 328 326 327 325 325 326 326 324 323 322 320 318 313
340 337 338 334 331 332 333 336 335 332 329 328 327 326 327 327 327 326 326 326 326 326 326 326 326 326 326 323 320 319 319 317 314
337 335 334 332 332 331 333 335 334 329 328 327 326 326 326 326 326 325 325 325 326 325 325 325 326 326 323 320 318 314 315 314 313
335 335 334 332 331 332 333 334 332 328 326 327 326 325 325 325 327 325 326 325 326 325 324 324 324 324 321 320 318 318 317 316 315
333 334 334 333 332 332 332 333 332 328 326 326 326 325 324 324 325 326 327 325 324 324 323 323 323 323 322 320 321 322 318 317 316
329 332 333 333 332 331 331 331 331 328 325 325 325 325 324 325 324 325 325 324 324 323 323 322 322 322 322 323 322 322 319 318 316
322 326 331 331 333 331 330 330 330 327 325 324 324 324 324 322 323 323 324 323 323 323 322 322 321 321 321 321 320 317 316 315 315
321 322 328 330 331 330 329 329 329 328 325 324 323 323 322 322 322 323 323 322 322 321 321 320 321 320 320 321 319 317 315 313 314
321 322 327 328 327 326 326 325 327 328 325 323 321 322 321 322 322 322 321 322 324 324 322 323 320 320 320 319 319 318 315 312 312
321 321 323 326 326 326 326 327 327 325 325 323 321 322 320 321 321 321 323 323 322 322 320 320 321 321 320 318 312 312 312 312 312
321 322 324 325 326 326 326 325 326 325 323 322 320 320 320 317 320 321 321 322 321 319 319 320 319 319 319 315 311 311 310 311 311
321 323 324 324 325 324 321 324 326 325 323 322 321 320 320 319 319 317 319 320 320 318 318 318 317 317 317 313 312 311 311 311 311
323 323 322 322 323 323 321 324 326 326 324 323 321 319 319 318 317 318 318 319 318 318 318 316 315 313 313 312 312 312 311 311 311

GFSFLT1_850_thetae_165.txt.gz
Theta_e
335 336 339 340 337 335 335 332 332 330 327 329 334 338 341 341 340 339 339 338 336 332 329 334 335 337 338 338 338 338 333 321 312
335 338 339 339 335 336 334 330 331 331 328 327 329 337 340 339 339 339 338 338 337 335 332 332 335 336 337 337 337 336 337 335 332
339 339 339 337 335 334 332 331 330 330 328 326 325 330 338 337 337 337 336 337 336 335 334 332 332 332 336 336 336 335 336 337 337
338 339 339 336 333 332 333 334 332 330 328 327 324 327 337 334 335 336 336 334 334 334 336 335 335 334 334 334 334 333 333 335 337
336 336 337 336 332 332 334 334 333 331 329 327 322 321 332 333 333 334 334 333 331 333 335 334 333 333 333 332 331 331 330 329 332
339 336 338 335 333 332 334 335 334 331 330 325 321 332 332 336 330 333 332 331 331 331 330 329 329 330 328 327 326 324 321 323 328
341 340 335 334 333 332 333 334 334 331 332 325 329 331 331 333 330 331 331 330 329 328 327 325 327 328 325 324 322 320 315 313 312
341 339 336 332 332 333 333 334 334 335 333 331 330 330 330 331 330 328 328 327 327 327 327 325 326 324 324 324 322 320 316 314 314
341 339 340 338 334 335 334 334 335 335 333 331 329 329 328 329 329 326 326 327 327 327 326 326 326 326 326 325 322 320 315 312 312
339 339 339 338 335 332 332 333 334 334 331 329 328 328 328 328 326 325 325 326 327 325 325 325 325 323 322 320 319 323 319 318 316
336 336 339 336 337 337 333 332 333 332 330 328 328 327 327 327 325 325 326 326 325 325 324 324 324 324 322 320 320 318 318 318 318
336 338 339 335 335 334 336 333 333 331 329 328 327 326 326 325 325 326 327 326 325 324 324 323 323 323 322 321 319 320 319 318 317
332 334 335 332 334 334 334 334 334 330 328 327 326 326 325 325 325 326 327 326 324 323 323 322 322 322 322 322 321 320 320 319 319
321 325 331 329 331 332 333 333 331 331 328 326 326 325 325 324 327 327 326 324 323 323 322 321 321 321 321 321 320 318 317 316 316
327 322 327 328 329 330 333 332 331 330 328 326 325 324 324 322 324 325 324 323 323 322 321 321 320 320 320 320 321 318 316 314 313
325 324 323 326 327 328 329 330 330 329 326 325 324 323 323 322 323 323 323 323 322 321 319 320 320 319 319 319 319 319 314 312 312
325 322 321 325 325 328 328 328 327 327 327 324 323 321 319 321 319 322 322 321 322 320 321 320 319 319 319 319 317 313 312 312 312
322 325 322 324 325 325 326 325 326 325 324 324 323 320 317 321 321 320 321 322 322 320 320 320 320 320 320 318 311 311 311 310 311
321 321 322 326 326 326 326 325 322 323 324 323 321 320 318 318 316 319 319 321 321 320 319 319 319 319 319 317 315 311 311 311 311
323 322 324 326 325 324 325 323 324 324 324 323 321 320 320 316 316 317 319 319 320 319 318 319 318 317 318 315 312 311 311 311 311

GFSFLT1_850_thetae_168.txt.gz
Theta_e
336 338 339 339 337 334 332 328 330 328 327 334 338 339 339 338 338 338 337 337 336 336 333 336 337 337 337 337 337 336 334 326 319
336 338 339 339 336 336 331 328 330 329 326 329 337 337 337 337 336 337 337 337 335 336 334 333 336 337 336 334 336 337 337 337 334
338 338 338 339 336 338 331 330 329 329 326 324 333 335 335 334 335 335 335 336 334 335 335 333 333 335 334 331 331 335 337 337 337
338 339 339 338 335 339 333 334 331 329 328 325 333 336 333 332 333 333 333 333 334 334 335 335 334 334 331 329 329 330 334 335 336
335 337 338 337 335 334 335 334 333 329 329 324 325 334 334 332 331 331 333 334 333 333 335 333 332 331 329 328 328 328 329 331 333
335 336 337 336 334 332 333 334 333 330 330 323 331 333 333 332 329 331 332 332 329 330 334 329 329 327 321 320 320 317 322 327 329
337 338 336 336 333 333 333 333 333 331 330 326 331 331 332 331 330 328 330 330 329 331 329 325 324 322 321 318 320 317 314 313 317
340 340 339 336 332 332 332 333 334 332 333 331 330 331 331 331 330 327 327 328 329 328 328 324 323 324 324 322 317 315 314 313 312
338 340 338 338 333 332 332 333 333 334 333 331 329 330 329 330 329 326 326 327 327 327 325 326 327 322 322 320 318 315 315 317 317
338 337 337 339 338 336 335 333 333 333 333 331 329 328 328 329 328 324 325 326 326 325 326 325 325 322 323 322 318 317 317 317 317
336 337 336 336 336 335 334 331 331 332 332 329 328 328 328 328 327 324 326 327 325 324 324 324 325 325 323 324 320 318 317 317 316
333 332 334 334 335 335 335 335 332 332 330 329 327 327 327 327 322 325 327 326 325 323 323 323 323 323 325 321 319 318 317 315 315
330 335 333 333 332 333 333 334 332 332 330 329 327 326 326 325 325 326 326 326 324 323 322 322 322 322 323 324 323 319 317 315 315
323 324 332 330 327 329 332 332 330 331 330 328 327 326 326 325 325 327 326 325 323 323 322 321 321 322 321 321 321 321 316 316 316
323 322 324 325 323 324 328 332 331 330 330 327 327 326 325 325 325 327 327 325 323 322 321 321 320 320 320 320 321 319 316 314 314
330 324 323 327 322 325 330 329 329 327 328 326 326 325 325 325 322 322 325 323 323 321 320 320 320 319 319 319 320 319 315 312 312
327 325 322 322 327 326 329 328 327 328 327 325 325 324 323 323 323 324 324 323 322 321 319 319 318 318 319 319 317 313 312 312 311
328 326 323 324 326 325 326 328 328 325 325 325 324 321 320 322 322 323 323 321 321 320 320 320 319 319 317 318 317 311 311 311 311
327 325 325 324 329 325 325 325 325 325 325 325 324 322 321 319 318 317 317 318 317 320 320 320 320 320 319 318 316 311 311 311 311
326 323 321 322 326 325 325 325 325 323 322 321 323 322 319 319 318 319 319 319 321 320 319 319 319 319 319 318 315 313 311 311 311

GFSFLT1_850_thetae_174.txt.gz
Theta_e
334 337 339 338 334 329 325 327 327 331 334 337 336 335 335 335 335 335 335 336 335 335 334 325 329 328 336 337 337 336 337 333 311
334 336 339 339 334 330 327 328 326 328 331 333 333 333 332 332 333 334 335 336 335 335 340 327 327 327 330 334 336 336 337 338 333
337 336 338 338 335 331 330 328 327 326 328 331 333 332 330 330 331 331 335 335 334 333 338 327 326 326 328 329 334 335 336 336 337
338 338 338 338 336 334 332 329 328 326 326 331 331 330 331 328 328 331 334 333 331 331 334 331 324 325 327 327 328 334 334 334 335
334 337 338 337 335 336 333 332 328 327 327 332 330 332 331 331 328 332 333 331 330 330 331 332 328 325 322 323 324 325 332 334 333
332 335 336 336 335 332 332 332 330 327 324 331 331 332 332 331 329 328 331 329 330 329 328 329 330 328 323 321 316 317 324 331 332
334 334 334 335 335 333 331 332 332 327 323 331 331 331 332 331 330 329 327 327 328 327 327 327 327 328 331 325 322 319 314 315 325
338 337 335 335 334 332 331 331 332 328 331 331 330 330 331 331 330 328 325 326 326 326 326 327 326 328 328 328 328 324 320 318 315
338 339 338 338 337 335 331 331 333 330 330 330 330 330 331 330 329 327 326 325 325 325 325 325 325 326 327 327 326 327 324 326 322
339 338 337 337 336 336 333 332 332 332 332 331 330 329 330 329 328 325 327 326 324 323 325 324 325 325 325 326 325 324 326 325 323
338 337 337 336 336 336 336 335 333 332 333 333 331 330 330 328 327 324 328 326 324 322 323 323 323 323 324 325 324 324 323 323 322
335 336 336 336 335 333 334 333 334 331 332 332 330 329 329 327 326 324 327 327 325 322 321 322 323 323 323 323 323 321 322 321 321
327 325 323 324 324 329 330 333 333 332 332 330 329 328 327 326 324 323 327 326 325 324 322 322 322 322 321 322 323 321 321 320 320
329 327 325 325 325 325 325 329 330 331 331 329 327 327 327 326 323 324 326 326 324 323 323 322 320 321 321 321 322 320 321 318 317
330 327 326 325 323 323 323 326 329 330 331 328 327 326 326 326 325 325 326 325 324 322 323 321 320 320 320 320 319 322 319 316 316
328 327 327 325 326 324 325 326 326 327 328 328 327 326 325 326 326 326 326 325 323 322 321 320 321 320 319 319 319 320 320 315 313
327 325 326 326 324 322 323 324 325 326 325 327 326 326 326 326 326 327 326 325 323 322 321 320 320 319 318 319 315 311 315 313 311
325 328 329 327 326 323 323 323 325 325 326 326 325 324 324 324 325 325 324 324 324 322 321 320 320 319 318 317 317 317 311 310 310
326 328 329 327 325 323 323 325 324 324 324 324 324 324 323 322 323 323 322 322 324 322 321 320 319 319 318 316 317 317 314 310 311
327 328 328 327 323 323 324 323 323 323 323 323 323 323 323 323 322 322 321 323 323 322 321 320 320 319 318 318 317 316 313 312 311